Weather History for Mullan Pass, ID

Change the Weather History Date:

Wednesday, March 6, 2013

  Actual Average (K3TH) Record (K3TH)
Temperature  
Mean Temperature 26 °F -  
Max Temperature 30 °F 39 °F 55 °F (2001)
Min Temperature 21 °F 26 °F 18 °F (2002)
Degree Days  
Heating Degree Days 40    
Moisture  
Dew Point 24 °F    
Average Humidity 90    
Maximum Humidity 100    
Minimum Humidity 69    
Precipitation  
Precipitation 0.46 in - - ()
Sea Level Pressure  
Sea Level Pressure 29.65 in    
Wind  
Wind Speed 9 mph (SSE)    
Max Wind Speed 16 mph    
Max Gust Speed 26 mph    
Visibility 2 miles    
Events Fog , Snow    
Averages and records for this station are not official NWS values.
T = Trace of Precipitation, MM = Missing Value Source: NWS Daily Summary

Daily Weather History Graph

Daily Weather History Graph

Search for Another Location

Airport:

Trip Planner

Search our weather history database for the weather conditions in past years. The results will help you decide how hot, cold, wet, or windy it might be!

Date:

Astronomy

Mar. 06, 2013 Rise Set
Actual Time 6:12 AM PST 5:35 PM PST
Civil Twilight 5:42 AM PST 6:06 PM PST
Nautical Twilight 5:06 AM PST 6:41 PM PST
Astronomical Twilight 4:30 AM PST 7:17 PM PST
Moon 2:43 AM PST (3/6) 12:05 PM PST (3/6)
Length of Visible Light 12h 24m
Length of Day
11h 22m
Waning Crescent, 29% of the Moon is Illuminated
Mar 6
Waning Crescent
Mar 11
New
Mar 19
First Quarter
Mar 27
Full
Apr 2
Last Quarter

Hourly Weather History & Observations

Time (PST) Temp. Windchill Dew Point Humidity Pressure Visibility Wind Dir Wind Speed Gust Speed Precip Events Conditions
12:53 AM 24.1 °F 13.7 °F 15.1 °F 69% 29.88 in 10.0 mi SE 10.4 mph - N/A   Mostly Cloudy
1:53 AM 24.1 °F 13.1 °F 15.1 °F 69% 29.83 in 10.0 mi SE 11.5 mph 20.7 mph N/A   Clear
2:53 AM 24.1 °F 11.0 °F 15.1 °F 69% 29.79 in 10.0 mi SE 16.1 mph 26.5 mph N/A   Partly Cloudy
3:53 AM 24.1 °F 11.5 °F 15.1 °F 69% 29.77 in 10.0 mi SE 15.0 mph 24.2 mph N/A   Mostly Cloudy
4:53 AM 24.1 °F 12.5 °F 15.1 °F 69% 29.76 in 10.0 mi SE 12.7 mph 20.7 mph N/A   Overcast
5:01 AM 23.0 °F 11.7 °F 15.8 °F 74% 29.65 in 2.5 mi SE 11.5 mph 21.9 mph 0.00 in Snow Light Snow
5:04 AM 23.0 °F 11.1 °F 17.6 °F 80% 29.65 in 1.2 mi SSE 12.7 mph 21.9 mph 0.00 in Snow Light Snow
5:12 AM 21.2 °F 8.3 °F 17.6 °F 86% 29.65 in 0.5 mi SSE 13.8 mph 20.7 mph 0.00 in Fog , Snow Snow
5:19 AM 21.2 °F 8.9 °F 19.4 °F 93% 29.65 in 0.2 mi SE 12.7 mph 20.7 mph 0.01 in Fog , Snow Snow
5:29 AM 21.2 °F 10.9 °F 21.2 °F 100% 29.64 in 0.8 mi SE 9.2 mph 17.3 mph 0.01 in Snow Light Snow
5:36 AM 23.0 °F 12.4 °F 21.2 °F 93% 29.64 in 1.2 mi SE 10.4 mph - 0.01 in Snow Light Snow
5:53 AM 23.0 °F 12.4 °F 21.0 °F 92% 29.75 in 1.2 mi SE 10.4 mph 16.1 mph 0.01 in Snow Light Snow
6:15 AM 21.2 °F 10.1 °F 19.4 °F 93% 29.63 in 0.8 mi SE 10.4 mph - 0.01 in Snow Light Snow
6:24 AM 21.2 °F 10.1 °F 19.4 °F 93% 29.64 in 0.2 mi SSE 10.4 mph 16.1 mph 0.02 in Fog , Snow Heavy Snow
6:34 AM 21.2 °F 11.7 °F 19.4 °F 93% 29.65 in 0.2 mi SSE 8.1 mph - 0.05 in Fog , Snow Heavy Snow
6:46 AM 24.8 °F 16.1 °F 21.2 °F 86% 29.63 in 0.2 mi SSE 8.1 mph - 0.09 in Fog , Snow Heavy Snow
6:53 AM 24.1 °F 16.0 °F 23.0 °F 96% 29.75 in 0.2 mi SSE 6.9 mph - 0.11 in Fog , Snow Heavy Snow
7:18 AM 26.6 °F 16.8 °F 26.6 °F 100% 29.61 in 0.2 mi ESE 10.4 mph 18.4 mph 0.04 in Fog , Snow Light Snow
7:27 AM 26.6 °F 17.5 °F 26.6 °F 100% 29.60 in 0.5 mi SSE 9.2 mph - 0.04 in Fog , Snow Light Snow
7:30 AM 24.8 °F 14.6 °F 23.0 °F 93% 29.60 in 0.2 mi SE 10.4 mph - 0.04 in Fog , Snow Light Snow
7:44 AM 21.2 °F 8.3 °F 21.2 °F 100% 29.61 in 0.5 mi SE 13.8 mph 19.6 mph 0.04 in Fog Light Freezing Fog
7:53 AM 21.0 °F 11.4 °F 21.0 °F 100% 29.73 in 0.5 mi SE 8.1 mph 17.3 mph 0.04 in Fog Light Freezing Fog
8:13 AM 21.2 °F 10.9 °F 19.4 °F 93% 29.60 in - SE 9.2 mph - 0.00 in Snow Light Snow
8:45 AM 21.2 °F 10.1 °F 21.2 °F 100% 29.60 in 0.2 mi SSE 10.4 mph - 0.00 in Fog Light Freezing Fog
8:53 AM 21.9 °F 11.7 °F 21.0 °F 96% 29.73 in 0.2 mi SSE 9.2 mph - 0.00 in Fog Light Freezing Fog
9:49 AM 21.2 °F 10.1 °F 21.2 °F 100% 29.59 in 0.2 mi SSE 10.4 mph - 0.00 in Fog , Snow Light Snow
9:53 AM 21.9 °F 11.7 °F 21.0 °F 96% 29.73 in 0.2 mi SSE 9.2 mph 20.7 mph 0.00 in Fog , Snow Light Snow
10:24 AM 24.8 °F 16.9 °F 23.0 °F 93% 29.59 in 0.8 mi South 6.9 mph - 0.00 in   Mist
10:26 AM 24.8 °F 15.3 °F 23.0 °F 93% 29.59 in - SSE 9.2 mph - 0.00 in   Overcast
10:43 AM 24.8 °F 15.3 °F 23.0 °F 93% 29.59 in 0.5 mi South 9.2 mph - 0.00 in Fog , Snow Light Snow
10:53 AM 26.1 °F 18.4 °F 23.0 °F 88% 29.69 in 0.5 mi South 6.9 mph - 0.00 in Fog , Snow Light Snow
11:09 AM 26.6 °F 19.1 °F 23.0 °F 86% 29.59 in 0.2 mi South 6.9 mph - 0.00 in Fog Light Freezing Fog
11:22 AM 26.6 °F 20.0 °F 24.8 °F 93% 29.59 in 0.5 mi South 5.8 mph - 0.00 in Fog Light Freezing Fog
11:29 AM 26.6 °F 19.1 °F 24.8 °F 93% 29.59 in 0.2 mi SSE 6.9 mph - 0.00 in Fog , Snow Light Snow
11:37 AM 26.6 °F 20.0 °F 23.0 °F 86% 29.59 in 0.5 mi South 5.8 mph - 0.00 in Fog , Snow Light Snow
11:53 AM 28.0 °F 22.8 °F 25.0 °F 88% 29.68 in 0.2 mi Variable 4.6 mph - 0.00 in Fog , Snow Light Snow
12:03 PM 28.4 °F 24.6 °F 24.8 °F 86% 29.58 in 0.8 mi South 3.5 mph - 0.00 in Snow Light Snow
12:14 PM 28.4 °F 22.2 °F 24.8 °F 86% 29.58 in 0.2 mi South 5.8 mph - 0.00 in Fog Light Freezing Fog
12:40 PM 30.2 °F 26.7 °F 26.6 °F 86% 29.58 in 0.5 mi Variable 3.5 mph - 0.00 in Fog Light Freezing Fog
12:53 PM 30.9 °F - 28.9 °F 92% 29.65 in 0.5 mi Calm Calm - 0.00 in Fog Light Freezing Fog
1:02 PM 30.2 °F 26.7 °F 28.4 °F 93% 29.58 in 0.2 mi Variable 3.5 mph - N/A Fog Light Freezing Fog
1:26 PM 28.4 °F 24.6 °F 26.6 °F 93% 29.58 in 0.5 mi Variable 3.5 mph - N/A Fog Light Freezing Fog
1:38 PM 28.4 °F 22.2 °F 26.6 °F 93% 29.58 in 0.2 mi Variable 5.8 mph - 0.00 in Fog , Snow Light Snow
1:53 PM 28.0 °F 21.7 °F 26.1 °F 92% 29.68 in 0.2 mi South 5.8 mph - 0.00 in Fog , Snow Light Snow
2:13 PM 30.2 °F 23.4 °F 28.4 °F 93% 29.57 in 0.8 mi South 6.9 mph - 0.01 in Snow Light Snow
2:25 PM 28.4 °F 23.3 °F 26.6 °F 93% 29.57 in 0.2 mi Variable 4.6 mph - 0.01 in Fog , Snow Light Snow
2:53 PM 28.0 °F 21.7 °F 26.1 °F 92% 29.67 in 0.2 mi South 5.8 mph - 0.01 in Fog Light Freezing Fog
3:03 PM 28.4 °F 23.3 °F 28.4 °F 100% 29.58 in 1.0 mi SSE 4.6 mph - N/A   Overcast
3:14 PM 28.4 °F 22.2 °F 28.4 °F 100% 29.58 in 0.5 mi South 5.8 mph - N/A Fog Light Freezing Fog
3:25 PM 28.4 °F 23.3 °F 28.4 °F 100% 29.58 in 0.2 mi SSE 4.6 mph - 0.00 in Fog , Snow Light Snow
3:53 PM 28.9 °F 23.9 °F 28.0 °F 96% 29.66 in 0.5 mi Variable 4.6 mph - 0.00 in Fog , Snow Light Snow
3:57 PM 28.4 °F 22.2 °F 28.4 °F 100% 29.58 in 0.2 mi South 5.8 mph - 0.00 in Fog , Snow Light Snow
4:27 PM 30.2 °F 26.7 °F 28.4 °F 93% 29.58 in 1.0 mi Variable 3.5 mph - 0.02 in   Overcast
4:29 PM 30.2 °F - 28.4 °F 93% 29.58 in 2.0 mi Calm Calm - 0.02 in   Overcast
4:36 PM 30.2 °F - 28.4 °F 93% 29.58 in 0.5 mi Calm Calm - 0.02 in Fog Light Freezing Fog
4:43 PM 30.2 °F - 26.6 °F 86% 29.58 in 0.2 mi Calm Calm - 0.02 in Fog Light Freezing Fog
4:53 PM 30.0 °F - 28.0 °F 92% 29.66 in 0.2 mi Calm Calm - 0.02 in Fog Light Freezing Fog
5:17 PM 30.2 °F 25.4 °F 26.6 °F 86% 29.58 in 1.2 mi NNW 4.6 mph - N/A   Overcast
5:19 PM 30.2 °F 25.4 °F 26.6 °F 86% 29.58 in 4.0 mi NW 4.6 mph - N/A   Overcast
5:41 PM 28.4 °F 22.2 °F 26.6 °F 93% 29.58 in 10.0 mi NNW 5.8 mph - N/A   Overcast
5:53 PM 28.9 °F 25.2 °F 27.0 °F 92% 29.69 in 4.0 mi Variable 3.5 mph - 0.00 in Snow Light Snow
5:56 PM 28.4 °F 23.3 °F 26.6 °F 93% 29.60 in 1.2 mi Variable 4.6 mph - 0.01 in Snow Light Snow
6:00 PM 28.4 °F 23.3 °F 26.6 °F 93% 29.61 in 0.2 mi Variable 4.6 mph - 0.02 in Fog , Snow Snow
6:27 PM 28.4 °F 23.3 °F 26.6 °F 93% 29.61 in 1.0 mi SW 4.6 mph - 0.07 in Snow Light Snow
6:37 PM 28.4 °F 20.4 °F 26.6 °F 93% 29.61 in 0.2 mi SW 8.1 mph - 0.10 in Fog , Snow Heavy Snow
6:53 PM 28.9 °F 22.8 °F 27.0 °F 92% 29.71 in 0.2 mi Variable 5.8 mph - 0.15 in Fog , Snow Heavy Snow
7:49 PM 28.4 °F 22.2 °F 24.8 °F 86% 29.64 in 0.5 mi WNW 5.8 mph - 0.09 in Fog , Snow Light Snow
7:53 PM 28.0 °F 24.2 °F 25.0 °F 88% 29.75 in 0.8 mi West 3.5 mph - 0.09 in Snow Light Snow
8:07 PM 28.4 °F 23.3 °F 24.8 °F 86% 29.64 in 1.2 mi West 4.6 mph - 0.01 in Snow Light Snow
8:33 PM 28.4 °F 24.6 °F 24.8 °F 86% 29.65 in 0.8 mi Variable 3.5 mph - 0.02 in Snow Light Snow
8:43 PM 26.6 °F 19.1 °F 24.8 °F 93% 29.66 in 0.8 mi WSW 6.9 mph - 0.02 in Snow Light Snow
8:53 PM 27.0 °F 20.5 °F 25.0 °F 92% 29.77 in 0.8 mi Variable 5.8 mph - 0.02 in Snow Light Snow
9:06 PM 26.6 °F 19.1 °F 24.8 °F 93% 29.67 in 1.5 mi Variable 6.9 mph - 0.00 in Snow Light Snow
9:18 PM 26.6 °F 22.6 °F 24.8 °F 93% 29.68 in 2.5 mi Variable 3.5 mph - 0.00 in Snow Light Snow
9:26 PM 26.6 °F - 24.8 °F 93% 29.68 in 3.0 mi Calm Calm - 0.00 in Snow Light Snow
9:46 PM 26.6 °F 21.2 °F 24.8 °F 93% 29.69 in 3.0 mi Variable 4.6 mph - 0.00 in Snow Light Snow
9:53 PM 26.1 °F 18.4 °F 24.1 °F 92% 29.81 in 1.8 mi Variable 6.9 mph - 0.01 in Snow Light Snow
10:11 PM 24.8 °F 16.1 °F 21.2 °F 86% 29.70 in 3.0 mi WSW 8.1 mph 21.9 mph 0.00 in Snow Light Snow
10:21 PM 24.8 °F 19.1 °F 21.2 °F 86% 29.70 in 10.0 mi Variable 4.6 mph - 0.00 in   Overcast
10:53 PM 24.1 °F 14.4 °F 21.0 °F 88% 29.82 in 9.0 mi SSW 9.2 mph 21.9 mph 0.00 in   Overcast
11:28 PM 24.8 °F 15.3 °F 21.2 °F 86% 29.73 in 2.0 mi WSW 9.2 mph 19.6 mph 0.00 in Snow Light Snow
11:53 PM 24.1 °F 15.2 °F 21.0 °F 88% 29.83 in 2.0 mi SW 8.1 mph 24.2 mph 0.00 in Snow Light Snow